Flag for Canada Weather past 2 weeks in Miramichi, New Brunswick, Canada

Now
70 °F

Broken clouds.


Feels Like: 70 °F
Forecast: N/A
Wind: 8 mph from East

Location: Bathurst Airport

Current Time: May 27, 2015 at 5:38:30 PM

Latest Report: May 27, 2015 at 5:00 PM


Visibility: 15 mi

Pressure: 29.91 "Hg

Humidity: 78%

Dew point: 63 °F

Location of MiramichiLocation

Historic Weather in Miramichi — Graph

°F

Miramichi temperature yesterday

Maximum temperature yesterday: 75 °F (at 7:00 PM)
Minimum temperature yesterday: 59 °F (at 5:00 AM)
Average temperature yesterday: 64 °F

Past Weeks' High & Low Weather Summary

 TemperatureHumidityPressure
High81 °F (May 25, 5:00 PM)100% (May 12, 5:00 PM)30.34 "Hg (May 12, 5:00 PM)
Low36 °F (May 22, 2:00 AM)12% (May 24, 6:00 PM)29.38 "Hg (May 20, 12:00 PM)
Average54 °F64%29.92 "Hg
* Reported May 12 4:00 PM — May 27 4:00 PM, Miramichi, Weather by CustomWeather, © 2015

Note: Actual official high and low records may vary slightly from our data, if they occured in-between our weather recording intervals... More about our weather records

Advertising

Miramichi weather history for previous 24 hours

 ConditionsComfort  
Time TempWeatherWind HumidityBarometerVisibility
4:00 PM
Wed, May 27
64 °FSprinkles. Mostly cloudy.5 mph78%29.95 "Hg10 mi
3:00 PM64 °FSprinkles. Partly sunny.5 mph68%29.98 "Hg15 mi
2:45 PM64 °FSprinkles. Mostly cloudy.7 mph68%29.98 "Hg15 mi
2:00 PM68 °FMostly cloudy.9 mph64%29.99 "Hg15 mi
1:00 PM70 °FMostly cloudy.8 mph60%30.01 "Hg15 mi
12:00 PM68 °FCloudy.7 mph64%30.03 "Hg15 mi
11:00 AM66 °FBroken clouds.10 mph68%30.06 "Hg15 mi
10:00 AM66 °FPartly sunny.7 mph73%30.05 "Hg15 mi
9:00 AM66 °FMostly cloudy.2 mph78%30.05 "Hg15 mi
8:00 AM64 °FPartly sunny.3 mph83%30.04 "Hg15 mi
7:00 AM61 °FBroken clouds.2 mph94%30.03 "Hg15 mi
6:00 AM63 °FFog.5 mph94%30.00 "Hg15 mi
5:00 AM55 °FFog.2 mph100%29.97 "Hg12 mi
4:55 AM55 °FFog.2 mph100%29.97 "Hg12 mi
4:00 AM57 °FPassing clouds.3 mph100%29.96 "Hg12 mi
3:00 AM61 °FPassing clouds.6 mph100%29.94 "Hg12 mi
2:00 AM61 °FPassing clouds.3 mph100%29.93 "Hg12 mi
1:00 AM63 °FPartly cloudy.2 mph94%29.92 "Hg15 mi
12:00 AM66 °FPassing clouds.5 mph83%29.90 "Hg15 mi
11:00 PM
Tue, May 26
66 °FPassing clouds.5 mph88%29.89 "Hg15 mi
10:00 PM68 °FPassing clouds.6 mph78%29.88 "Hg15 mi
9:00 PM72 °FPartly sunny.7 mph73%29.86 "Hg15 mi
8:00 PM75 °FBroken clouds.9 mph65%29.85 "Hg15 mi
7:00 PM75 °FScattered clouds.7 mph69%29.85 "Hg15 mi
6:00 PM72 °FPartly sunny.5 mph78%29.86 "Hg12 mi
5:00 PM70 °FMostly cloudy.6 mph83%29.86 "Hg12 mi
Weather by CustomWeather, © 2015

See weather overviewHow to use our weather pages